Location: Cheadle
(51.0146°N, 113.5417°W)
Time: 13:44:55
(UTC+00:00)

Oscar 19 - Pass Details

Date: 01 December 2023
Orbit: 771 x 789 km, 98.9° (Epoch: 04 March)

Event Time Altitude Azimuth Distance (km) Brightness Sun altitude
Rises 00:25:00 0° 203° (SSW) 3,235 14.7 -8.1°
Reaches altitude 10° 00:27:49 10° 219° (SW) 2,313 14.2 -8.5°
Maximum altitude 00:31:41 22° 269° (W) 1,655 13.3 -9.1°
Drops below altitude 10° 00:35:36 10° 319° (NW) 2,327 13.3 -9.7°
Sets 00:38:28 0° 335° (NNW) 3,261 13.9 -10.1°
